Cleveland Burke, OH

10:25 AM EDT on April 23, 2017 (GMT -0400)
Burke Lakefront

Weather History for KBKL - October, 2011

Change the Weather History Date:

Thursday, October 13, 2011

  Actual Average Record
Temperature  
Mean Temperature 64 °F -  
Max Temperature 69 °F 61 °F 84 °F (1997)
Min Temperature 60 °F 47 °F 35 °F (2006)
Growing Degree Days 14 (Base 50)    
Moisture  
Dew Point 58 °F    
Average Humidity 87    
Maximum Humidity 100    
Minimum Humidity 61    
Precipitation  
Precipitation 0.03 in - - ()
Sea Level Pressure  
Sea Level Pressure 29.56 in    
Wind  
Wind Speed 7 mph (East)    
Max Wind Speed 9 mph    
Max Gust Speed -    
Visibility 6 miles    
Events Rain    
Averages and records for this station are not official NWS values.
T = Trace of Precipitation, MM = Missing Value Source: NWS Daily Summary

Daily Weather History Graph

Daily Weather History Graph

Search for Another Location

Airport or City:

Trip Planner

Search our weather history database for the weather conditions in past years. The results will help you decide how hot, cold, wet, or windy it might be!

Date:

Astronomy

Oct. 13, 2011 Rise Set
Actual Time 7:36 AM EDT 6:49 PM EDT
Civil Twilight 7:08 AM EDT 7:16 PM EDT
Nautical Twilight 6:36 AM EDT 7:49 PM EDT
Astronomical Twilight 6:04 AM EDT 8:21 PM EDT
Moon 7:21 PM EDT (10/13) 9:08 AM EDT (10/13)
Length of Visible Light 12h 08m
Length of Day
11h 13m
Full, 98% of the Moon is Illuminated
Oct 13
Full
Oct 19
Last Quarter
Oct 26
New
Nov 2
First Quarter
Nov 10
Full

Hourly Weather History & Observations

Time (EDT) Temp. Dew Point Humidity Pressure Visibility Wind Dir Wind Speed Gust Speed Precip Events Conditions
12:53 AM 60.1 °F 57.0 °F 90% 29.74 in 8.0 mi South 6.9 mph - N/A   Overcast
1:53 AM 60.1 °F 57.0 °F 90% 29.73 in 7.0 mi South 9.2 mph - N/A   Overcast
2:53 AM 60.1 °F 57.0 °F 90% 29.72 in 6.0 mi South 9.2 mph - N/A   Overcast
3:53 AM 60.1 °F 57.0 °F 90% 29.71 in 6.0 mi South 8.1 mph - N/A   Overcast
4:53 AM 60.1 °F 55.9 °F 86% 29.70 in 6.0 mi Calm Calm - N/A   Overcast
5:53 AM 60.1 °F 57.0 °F 90% 29.70 in 6.0 mi SSE 9.2 mph - N/A   Overcast
6:53 AM 60.1 °F 55.9 °F 86% 29.70 in 6.0 mi SSE 8.1 mph - N/A   Overcast
7:53 AM 60.1 °F 55.9 °F 86% 29.69 in 7.0 mi South 5.8 mph - N/A   Overcast
8:53 AM 60.1 °F 55.9 °F 86% 29.69 in 6.0 mi South 6.9 mph - N/A   Overcast
9:53 AM 62.1 °F 55.9 °F 80% 29.68 in 7.0 mi SSE 8.1 mph - N/A   Overcast
10:53 AM 62.6 °F 55.4 °F 77% 29.66 in 10.0 mi SSE 9.2 mph - N/A   Overcast
11:53 AM 64.0 °F 55.9 °F 75% 29.64 in 10.0 mi SE 6.9 mph - N/A   Overcast
12:53 PM 68.0 °F 54.0 °F 61% 29.62 in 10.0 mi South 3.5 mph - N/A   Overcast
1:53 PM 69.1 °F 55.0 °F 61% 29.59 in 10.0 mi SSE 6.9 mph - N/A   Overcast
2:53 PM 69.1 °F 55.0 °F 61% 29.55 in 10.0 mi Variable 5.8 mph - N/A   Mostly Cloudy
3:53 PM 64.9 °F 59.0 °F 81% 29.54 in 10.0 mi NNE 6.9 mph - N/A   Overcast
4:53 PM 64.0 °F 57.9 °F 80% 29.52 in 10.0 mi NE 9.2 mph - N/A   Clear
5:53 PM 63.0 °F 57.9 °F 84% 29.51 in 10.0 mi NE 9.2 mph - N/A   Mostly Cloudy
6:53 PM 62.1 °F 59.0 °F 90% 29.49 in 7.0 mi NE 8.1 mph - N/A Rain Light Rain
7:51 PM 62.6 °F 60.8 °F 94% 29.49 in 3.0 mi NNE 4.6 mph - N/A Rain Rain
7:53 PM 62.6 °F 60.8 °F 94% 29.49 in 3.0 mi NNE 4.6 mph - N/A Rain Rain
8:01 PM 60.8 °F 60.8 °F 100% 29.49 in 3.0 mi NNE 4.6 mph - 0.01 in Rain Rain
8:18 PM 60.8 °F 60.8 °F 100% 29.49 in 3.0 mi NE 5.8 mph - 0.02 in Rain Rain
8:49 PM 62.6 °F 60.8 °F 94% 29.46 in 4.0 mi NE 4.6 mph - 0.03 in Rain Light Rain
8:53 PM 62.1 °F 60.1 °F 93% 29.45 in 3.0 mi NE 5.8 mph - 0.03 in Rain Light Rain
9:11 PM 62.6 °F 60.8 °F 94% 29.45 in 2.5 mi ENE 6.9 mph - 0.00 in Rain Rain
9:25 PM 62.6 °F 60.8 °F 94% 29.45 in 3.0 mi ENE 6.9 mph - 0.00 in Rain Rain
9:36 PM 62.6 °F 60.8 °F 94% 29.45 in 3.0 mi ENE 4.6 mph - N/A Rain Light Rain
9:53 PM 62.1 °F 60.1 °F 93% 29.44 in 4.0 mi ENE 5.8 mph - N/A Rain Light Rain
10:04 PM 62.6 °F 60.8 °F 94% 29.44 in 4.0 mi ENE 5.8 mph - N/A Rain Light Rain
10:11 PM 62.6 °F 60.8 °F 94% 29.45 in 4.0 mi NE 3.5 mph - N/A Rain Light Rain
10:53 PM 62.1 °F 60.1 °F 93% 29.43 in 5.0 mi SSW 3.5 mph - N/A   Overcast
11:00 PM 62.6 °F 60.8 °F 94% 29.42 in 4.0 mi Calm Calm - N/A Rain Rain
11:53 PM 63.0 °F 61.0 °F 93% 29.39 in 4.0 mi Calm Calm - N/A   Overcast